SCP
0 0 0 0 0 0 0 0 0 0 0 0 0 0 0 0 0 0 0 0 0 0
0 0 0 0 0 0 0 0 0 0 0 0 0 0 0 0 0 0 0 0 0 0
0 0 0 0 0 0 0 0 0 0 0 0 0 0 0 0 0 0 0 0 0 0
0 0 0 0 0 0 0 0 0 0 0 0 0 0 0 0 0 0 0 0 0 0
0 0 0 0 0 0 0 0 0 0 0 0 0 0 0 0 0 0 0 0 0 0
0 0 0 0 0 0 0 0 0 0 0 0 0 0 0 0 0 0 0 0 0 0
0 0 0 0 0 0 0 0 0 0 0 0 0 0 0 0 0 0 0 0 0 0
0 0 0 0 0 0 0 0 0 0 0 0 0 0 0 0 0 0 0 0 0 0
0 0 0 0 0 0 0 0 0 0 0 0 0 0 0 0 0 0 0 0 0 0
0 0 0 0 0 0 0 0 0 0 0 0 0 0 0 0 0 0 0 0 0 0
0 0 0 0 0 0 0 0 0 0 0 0 0 0 0 0 0 0 0 0 0 0
0 0 0 0 0 0 0 0 0 0 0 0 0 0 0 0 0 0 0 0 0 0
0 0 0 0 0 0 0 0 0 0 0 0 0 0 0 0 0 0 0 0 0 0
0 0 0 0 0 0 0 0 0 0 0 0 0 0 0 0 0 0 0 0 0 0
Wind_Speed_500mb
39 39 39 37 37 37 36 38 37 36 34 34 36 35 36 36 34 32 30 30 30 29
37 36 36 38 39 39 40 41 39 38 39 39 40 39 39 38 37 34 33 32 31 31
34 34 35 38 39 39 40 40 40 37 39 39 40 39 38 38 36 36 33 33 32 31
32 34 35 35 36 36 37 38 37 35 35 34 34 32 34 34 35 35 33 32 30 28
32 33 34 34 35 34 33 32 31 30 32 33 32 33 34 34 34 34 32 30 29 25
31 32 32 33 34 34 34 32 29 30 31 31 31 32 33 34 33 32 31 31 29 26
30 32 32 33 33 33 33 32 29 31 32 30 29 29 31 32 33 33 32 32 32 30
28 31 34 34 35 34 33 32 30 29 32 33 32 31 31 32 32 32 32 33 33 32
29 31 32 35 37 37 36 34 35 33 32 34 33 29 28 31 33 33 35 36 36 36
29 30 32 33 36 37 38 39 39 38 39 38 36 32 31 32 36 37 40 42 42 42
29 30 32 33 35 36 38 40 42 43 43 44 43 40 39 40 44 48 49 50 50 50
27 27 28 29 31 34 36 38 41 43 44 47 47 45 46 47 53 57 58 58 59 59
23 23 24 25 27 28 31 32 35 37 39 42 44 44 47 50 53 60 63 65 66 66
21 20 20 21 23 24 26 27 28 31 31 33 36 36 36 41 48 55 59 61 63 64
Wind_Direction_500mb
255 257 261 264 265 266 268 271 271 273 268 264 261 262 261 260 258 255 251 250 249 250
256 258 262 265 268 269 270 272 272 269 268 265 265 263 263 259 257 254 253 252 252 254
260 265 266 267 269 270 270 269 271 269 268 266 265 262 258 253 251 250 250 253 256 257
260 264 267 269 270 269 269 269 268 267 266 265 262 258 254 252 247 247 247 250 251 249
258 262 267 270 270 270 269 265 265 265 266 264 264 260 254 254 250 247 245 243 240 239
258 261 264 267 269 269 267 264 262 267 267 266 262 257 254 253 248 246 242 235 231 231
258 258 260 262 265 266 266 264 265 269 269 264 259 254 252 251 248 243 237 231 229 236
258 258 257 258 261 262 263 266 264 266 271 270 261 254 251 250 248 246 238 235 239 247
262 261 260 256 256 259 262 264 264 263 263 266 269 267 258 254 251 246 244 248 250 251
266 263 261 260 261 262 262 262 264 264 265 267 265 263 261 257 254 251 254 255 256 258
269 267 266 266 266 265 265 266 267 266 264 264 264 263 260 258 259 260 261 262 263 264
276 273 272 272 271 271 270 270 270 270 270 270 269 265 262 260 260 261 262 264 265 267
284 283 281 279 277 276 276 276 275 275 274 273 273 269 265 262 258 260 262 263 265 266
288 290 290 289 287 286 285 285 282 281 279 277 275 274 270 267 263 263 265 267 268 270
Wind_Speed_850mb
39 39 39 37 37 37 36 38 37 36 34 34 36 35 36 36 34 32 30 30 30 29
37 36 36 38 39 39 40 41 39 38 39 39 40 39 39 38 37 34 33 32 31 31
34 34 35 38 39 39 40 40 40 37 39 39 40 39 38 38 36 36 33 33 32 31
32 34 35 35 36 36 37 38 37 35 35 34 34 32 34 34 35 35 33 32 30 28
32 33 34 34 35 34 33 32 31 30 32 33 32 33 34 34 34 34 32 30 29 25
31 32 32 33 34 34 34 32 29 30 31 31 31 32 33 34 33 32 31 31 29 26
30 32 32 33 33 33 33 32 29 31 32 30 29 29 31 32 33 33 32 32 32 30
28 31 34 34 35 34 33 32 30 29 32 33 32 31 31 32 32 32 32 33 33 32
29 31 32 35 37 37 36 34 35 33 32 34 33 29 28 31 33 33 35 36 36 36
29 30 32 33 36 37 38 39 39 38 39 38 36 32 31 32 36 37 40 42 42 42
29 30 32 33 35 36 38 40 42 43 43 44 43 40 39 40 44 48 49 50 50 50
27 27 28 29 31 34 36 38 41 43 44 47 47 45 46 47 53 57 58 58 59 59
23 23 24 25 27 28 31 32 35 37 39 42 44 44 47 50 53 60 63 65 66 66
21 20 20 21 23 24 26 27 28 31 31 33 36 36 36 41 48 55 59 61 63 64
Wind_Direction_850mb
255 257 261 264 265 266 268 271 271 273 268 264 261 262 261 260 258 255 251 250 249 250
256 258 262 265 268 269 270 272 272 269 268 265 265 263 263 259 257 254 253 252 252 254
260 265 266 267 269 270 270 269 271 269 268 266 265 262 258 253 251 250 250 253 256 257
260 264 267 269 270 269 269 269 268 267 266 265 262 258 254 252 247 247 247 250 251 249
258 262 267 270 270 270 269 265 265 265 266 264 264 260 254 254 250 247 245 243 240 239
258 261 264 267 269 269 267 264 262 267 267 266 262 257 254 253 248 246 242 235 231 231
258 258 260 262 265 266 266 264 265 269 269 264 259 254 252 251 248 243 237 231 229 236
258 258 257 258 261 262 263 266 264 266 271 270 261 254 251 250 248 246 238 235 239 247
262 261 260 256 256 259 262 264 264 263 263 266 269 267 258 254 251 246 244 248 250 251
266 263 261 260 261 262 262 262 264 264 265 267 265 263 261 257 254 251 254 255 256 258
269 267 266 266 266 265 265 266 267 266 264 264 264 263 260 258 259 260 261 262 263 264
276 273 272 272 271 271 270 270 270 270 270 270 269 265 262 260 260 261 262 264 265 267
284 283 281 279 277 276 276 276 275 275 274 273 273 269 265 262 258 260 262 263 265 266
288 290 290 289 287 286 285 285 282 281 279 277 275 274 270 267 263 263 265 267 268 270